Latest Coastal Weather Observations for Neptune Island

IDS60701

Issued at 5:51 pm CDT Saturday 20 December 2014 (issued every 10 minutes, with the page automatically refreshed every 10 minutes)

About coastal observations | Map of coastal stations | Coastal observations for SA | Marine services | Other Formats
Station Details ID: 018115 Name: NEPTUNE ISLAND Lat: -35.34 Lon: 136.12 Height: 32.0 m
Data from the previous 72 hours. | See also: Recent months at Neptune Island
Date/Time
CDT
Temp

°C
Wind Pressure Rain
since 9am
mm
Weather Cloud Vis
km
Sea
Height
m
Swell
Dir
 
Speed
knots
Gust
knots
hPa Trend Height
m
Period
s
Dir
20/05:30pm 19.8 SSE 12 15 1014.3 - 0.0 - - - - - - -
20/05:00pm 20.2 SE 11 14 1014.7 - 0.0 - - - - - - -
20/04:30pm 21.0 SE 12 15 1014.8 - 0.0 - - - - - - -
20/04:00pm 20.6 SE 11 14 1015.3 - 0.0 - - - - - - -
20/03:30pm 20.9 SE 11 13 1015.7 - 0.0 - - - - - - -
20/03:00pm 20.5 SE 10 13 1015.9 - 0.0 - - - - - - -
20/02:30pm 21.0 ESE 9 11 1016.5 - 0.0 - - - - - - -
20/02:00pm 20.2 E 9 12 1017.0 - 0.0 - - - - - - -
20/01:30pm 20.9 E 10 12 1017.3 - 0.0 - - - - - - -
20/01:00pm 19.7 ENE 12 14 1017.6 - 0.0 - - - - - - -
20/12:30pm 19.9 E 12 15 1017.9 - 0.0 - - - - - - -
20/12:00pm 20.3 E 11 15 1018.2 - 0.0 - - - - - - -
20/11:00am 19.8 E 9 12 1018.7 - 0.0 - - - - - - -
20/10:30am 18.9 E 7 10 1019.0 - 0.0 - - - - - - -
20/10:00am 19.3 E 9 11 1019.0 - 0.0 - - - - - - -
20/09:30am 18.6 E 9 11 1019.3 - 0.0 - - - - - - -
20/09:00am 18.4 ENE 8 10 1019.4 - 0.0 - - - - - - -
20/08:30am 18.2 ENE 8 10 1019.1 - 0.0 - - - - - - -
20/08:00am 17.1 ENE 6 7 1019.2 - 0.0 - - - - - - -
20/07:30am 17.0 ENE 6 8 1018.9 - 0.0 - - - - - - -
20/07:00am 16.5 E 8 9 1018.5 - 0.0 - - - - - - -
20/06:30am 15.5 E 9 10 1018.4 - 0.0 - - - - - - -
20/06:00am 15.2 ENE 8 10 1018.4 - 0.0 - - - - - - -
20/05:00am 15.1 ENE 7 8 1018.4 - 0.0 - - - - - - -
20/04:30am 15.5 ENE 7 9 1018.3 - 0.0 - - - - - - -
20/04:00am 15.1 E 8 11 1017.9 - 0.0 - - - - - - -
20/03:30am 15.2 E 9 11 1018.1 - 0.0 - - - - - - -
20/03:00am 15.3 ESE 11 13 1018.0 - 0.0 - - - - - - -
20/02:30am 15.4 ESE 12 15 1018.2 - 0.0 - - - - - - -
20/02:00am 15.3 ESE 13 15 1018.6 - 0.0 - - - - - - -
20/01:30am 15.4 ESE 13 15 1019.1 - 0.0 - - - - - - -
20/01:00am 15.6 ESE 12 15 1019.6 - 0.0 - - - - - - -
20/12:30am 15.9 SE 12 15 1019.8 - 0.0 - - - - - - -
20/12:00am 15.9 SE 12 15 1020.1 - 0.0 - - - - - - -
 
Date/Time
CDT
Temp

°C
Wind Pressure Rain
since 9am
mm
Weather Cloud Vis
km
Sea
Height
m
Swell
Dir
 
Speed
knots
Gust
knots
hPa Trend Height
m
Period
s
Dir
19/11:30pm 16.0 SSE 12 15 1020.4 - 0.0 - - - - - - -
19/11:00pm 16.1 SSE 13 16 1020.6 - 0.0 - - - - - - -
19/10:30pm 16.0 SSE 12 15 1020.8 - 0.0 - - - - - - -
19/10:00pm 16.3 SSE 14 16 1020.6 - 0.0 - - - - - - -
19/09:30pm 16.3 SSE 12 15 1020.8 - 0.0 - - - - - - -
19/09:00pm 16.4 S 14 16 1020.5 - 0.0 - - - - - - -
19/08:30pm 16.7 S 13 17 1020.5 - 0.0 - - - - - - -
19/08:00pm 16.7 S 13 15 1020.6 - 0.0 - - - - - - -
19/07:30pm 17.3 S 14 16 1020.5 - 0.0 - - - - - - -
19/07:00pm 17.7 S 13 16 1020.4 - 0.0 - - - - - - -
19/06:30pm 17.8 SSW 12 15 1020.6 - 0.0 - - - - - - -
19/06:00pm 18.3 SSW 11 13 1020.4 - 0.0 - - - - - - -
19/05:30pm 19.0 SSW 10 13 1020.5 - 0.0 - - - - - - -
19/05:00pm 19.5 SSW 11 13 1020.6 - 0.0 - - - - - - -
19/04:30pm 19.7 SSW 10 13 1020.7 - 0.0 - - - - - - -
19/04:00pm 19.5 SW 11 14 1020.8 - 0.0 - - - - - - -
19/03:30pm 19.1 SW 11 14 1021.1 - 0.0 - - - - - - -
19/03:00pm 19.9 SW 11 12 1021.2 - 0.0 - - - - - - -
19/02:30pm 19.3 SW 10 13 1021.2 - 0.0 - - - - - - -
19/02:00pm 19.2 SW 11 14 1021.3 - 0.0 - - - - - - -
19/01:30pm 19.7 SW 10 13 1021.2 - 0.0 - - - - - - -
19/01:00pm 19.6 SW 9 11 1021.5 - 0.0 - - - - - - -
19/12:30pm 18.4 SW 8 10 1021.7 - 0.0 - - - - - - -
19/12:00pm 18.8 SSW 8 10 1021.7 - 0.0 - - - - - - -
19/11:30am 18.4 SW 7 9 1021.8 - 0.0 - - - - - - -
19/11:00am 18.0 SSW 6 9 1021.7 - 0.0 - - - - - - -
19/10:30am 18.3 SSW 6 8 1021.6 - 0.0 - - - - - - -
19/10:00am 17.8 SSW 5 6 1021.3 - 0.0 - - - - - - -
19/09:30am 18.0 S 6 8 1020.9 - 0.0 - - - - - - -
19/09:00am 17.2 S 5 6 1020.6 - 0.0 - - - - - - -
19/08:30am 17.1 S 5 6 1020.2 - 0.0 - - - - - - -
19/08:00am 16.6 S 6 9 1019.7 - 0.0 - - - - - - -
19/07:30am 15.9 SSW 8 9 1019.3 - 0.0 - - - - - - -
19/07:00am 15.5 SSW 10 12 1018.9 - 0.0 - - - - - - -
19/06:30am 15.5 SSW 10 12 1018.5 - 0.0 - - - - - - -
19/06:00am 15.2 SSW 9 12 1018.2 - 0.0 - - - - - - -
19/05:30am 15.4 S 10 12 1018.2 - 0.0 - - - - - - -
19/05:00am 15.4 S 11 14 1017.9 - 0.0 - - - - - - -
19/04:30am 15.4 S 11 14 1018.1 - 0.0 - - - - - - -
19/04:00am 15.4 SSW 11 14 1018.1 - 0.0 - - - - - - -
19/03:30am 15.5 SSW 10 13 1018.2 - 0.0 - - - - - - -
19/03:00am 15.5 SSW 11 13 1018.3 - 0.0 - - - - - - -
19/02:30am 15.5 S 11 13 1018.1 - 0.0 - - - - - - -
19/02:00am 15.6 SSW 11 14 1018.3 - 0.0 - - - - - - -
19/01:30am 15.6 S 13 16 1018.3 - 0.0 - - - - - - -
19/01:00am 15.8 S 14 17 1018.5 - 0.0 - - - - - - -
19/12:30am 15.8 SSW 13 16 1018.4 - 0.0 - - - - - - -
19/12:00am 15.9 SSW 13 16 1018.3 - 0.0 - - - - - - -
 
Date/Time
CDT
Temp

°C
Wind Pressure Rain
since 9am
mm
Weather Cloud Vis
km
Sea
Height
m
Swell
Dir
 
Speed
knots
Gust
knots
hPa Trend Height
m
Period
s
Dir
18/11:30pm 16.1 SSW 12 14 1018.4 - 0.0 - - - - - - -
18/11:00pm 16.0 SSW 12 16 1018.3 - 0.0 - - - - - - -
18/10:30pm 16.0 SSW 15 19 1018.0 - 0.0 - - - - - - -
18/10:00pm 16.1 SSW 15 18 1017.8 - 0.0 - - - - - - -
18/09:30pm 16.0 SW 15 19 1017.6 - 0.0 - - - - - - -
18/09:00pm 16.1 SSW 16 19 1017.3 - 0.0 - - - - - - -
18/08:30pm 16.3 SSW 17 20 1017.0 - 0.0 - - - - - - -
18/08:00pm 16.8 SSW 18 21 1016.8 - 0.0 - - - - - - -
18/07:30pm 17.0 SSW 17 22 1016.5 - 0.0 - - - - - - -
18/07:00pm 17.3 SSW 15 19 1016.0 - 0.0 - - - - - - -
18/06:30pm 18.0 SSW 16 19 1015.6 - 0.0 - - - - - - -
18/06:00pm 18.0 SSW 17 20 1015.3 - 0.0 - - - - - - -
18/05:30pm 18.9 SSW 18 22 1015.0 - 0.0 - - - - - - -
18/05:00pm 18.9 SSW 19 22 1014.8 - 0.0 - - - - - - -
18/04:30pm 19.1 SW 18 21 1014.6 - 0.0 - - - - - - -
18/04:00pm 19.2 SSW 19 23 1014.4 - 0.0 - - - - - - -
18/03:30pm 19.1 SW 18 22 1014.2 - 0.0 - - - - - - -
18/03:00pm 18.9 SW 19 22 1013.8 - 0.0 - - - - - - -
18/02:30pm 19.5 SW 19 22 1013.6 - 0.0 - - - - - - -
18/02:00pm 19.3 SW 18 21 1013.6 - 0.0 - - - - - - -
18/01:30pm 19.2 SW 20 24 1013.5 - 0.0 - - - - - - -
18/01:00pm 19.0 SW 20 23 1013.3 - 0.0 - - - - - - -
18/12:30pm 19.1 SW 20 24 1013.2 - 0.0 - - - - - - -
18/12:00pm 18.9 SW 18 22 1012.8 - 0.0 - - - - - - -
18/11:30am 18.7 SW 19 22 1012.5 - 0.0 - - - - - - -
18/11:00am 18.6 SW 20 24 1012.4 - 0.0 - - - - - - -
18/10:30am 17.8 SW 24 30 1011.8 - 0.0 - - - - - - -
18/10:00am 17.9 SW 23 26 1011.6 - 0.0 - - - - - - -
18/09:30am 17.4 WSW 22 26 1011.2 - 0.0 - - - - - - -
18/09:00am 18.1 WSW 23 29 1010.7 - 0.0 - - - - - - -
18/08:30am 17.8 W 21 26 1010.2 - 0.0 - - - - - - -
18/08:00am 16.9 WSW 24 27 1009.8 - 0.0 - - - - - - -
18/07:30am 17.4 WSW 20 24 1009.4 - 0.0 - - - - - - -
18/07:00am 17.2 W 22 26 1009.0 - 0.0 - - - - - - -
18/06:30am 17.2 W 23 28 1008.7 - 0.0 - - - - - - -
18/06:00am 16.9 W 24 28 1008.4 - 0.0 - - - - - - -
18/05:30am 17.1 W 25 30 1008.2 - 0.0 - - - - - - -
18/05:00am 16.8 W 23 27 1007.8 - 0.0 - - - - - - -
18/04:30am 16.9 W 21 24 1007.7 - 0.0 - - - - - - -
18/04:00am 16.9 W 21 25 1007.4 - 0.0 - - - - - - -
18/03:30am 16.6 W 20 23 1007.5 - 0.0 - - - - - - -
18/03:00am 16.7 W 20 23 1007.4 - 0.0 - - - - - - -
18/02:30am 16.7 W 21 24 1007.7 - 0.0 - - - - - - -
18/02:00am 16.6 W 19 23 1007.9 - 0.0 - - - - - - -
18/01:30am 16.9 W 19 22 1008.0 - 0.0 - - - - - - -
18/01:00am 16.7 W 17 19 1008.0 - 0.0 - - - - - - -
18/12:30am 16.6 W 15 19 1008.2 - 0.0 - - - - - - -
18/12:00am 16.6 W 15 18 1008.4 - 0.0 - - - - - - -
 
Date/Time
CDT
Temp

°C
Wind Pressure Rain
since 9am
mm
Weather Cloud Vis
km
Sea
Height
m
Swell
Dir
 
Speed
knots
Gust
knots
hPa Trend Height
m
Period
s
Dir
17/11:30pm 16.6 W 15 17 1008.4 - 0.0 - - - - - - -
17/11:00pm 16.7 W 14 17 1008.6 - 0.0 - - - - - - -
17/10:30pm 16.5 W 10 12 1008.5 - 0.0 - - - - - - -
17/10:00pm 16.6 W 12 15 1008.5 - 0.0 - - - - - - -
17/09:30pm 16.6 W 11 13 1008.5 - 0.0 - - - - - - -
17/09:00pm 17.0 WSW 13 16 1008.6 - 0.0 - - - - - - -
17/08:30pm 17.0 WSW 15 17 1008.4 - 0.0 - - - - - - -
17/08:00pm 17.7 WSW 13 16 1008.2 - 0.0 - - - - - - -
17/07:30pm 18.2 WSW 10 13 1008.0 - 0.0 - - - - - - -
17/07:00pm 18.1 WSW 12 15 1007.9 - 0.0 - - - - - - -
17/06:30pm 17.8 WSW 15 19 1007.8 - 0.0 - - - - - - -
17/06:00pm 18.7 WSW 13 15 1007.8 - 0.0 - - - - - - -

Other Formats:

Comma delimited format used in spreadsheet applications
http://www.bom.gov.au/fwo/IDS60701/IDS60701.94804.axf

JavaScript Object Notation format (JSON) in row-major order
http://www.bom.gov.au/fwo/IDS60701/IDS60701.94804.json